Regional Weather Roundup
Issued by NWS Sterling, VA

Home | Current Version | Previous Version | Graphics & Text | Print | Product List | Glossary On
Versions: 1 2 3 4 5 6 7 8 9 10 11 12 13 14 15 16 17 18 19 20 21 22 23 24 25 26 27 28 29 30 31 32 33 34 35 36 37 38 39 40 41 42 43 44 45 46 47 48 49 50
667
ASUS41 KLWX 162211
RWRLWX

REGIONAL WEATHER ROUNDUP
NATIONAL WEATHER SERVICE BALTIMORE MD/WASHINGTON DC
600 PM EDT WED AUG 16 2017

Note: "FAIR" indicates few or no clouds below 12,000 feet
with no significant weather and/or obstructions to visibility.
 TC=TEMPERATURE CELSIUS

 * =Non NWS site. Station does not report precipitation (e.g. rain,
    snow, etc.), thunder, or fog.

DCZ001-MDZ009-015-VAZ040>042-051-053>054-162300-
WASHINGTON METRO

CITY           SKY/WX    TMP DP  RH WIND       PRES   REMARKS
WASHINGTON NAT PTSUNNY   88  66  48 N8        29.98R HX  90
DULLES         PTSUNNY   85  71  63 NE10      29.99R HX  90
ANDREWS AFB    SUNNY     85  69  57 E3        29.97S
FT BELVOIR     SUNNY     84  74  71 CALM      29.97S HX  91
QUANTICO       PTSUNNY   88  73  61 S6        29.98S HX  95
COLLEGE PARK*  SUNNY     87  67  50 NW5       29.97S
LEESBURG*      CLOUDY    86  72  62 NE6       30.00S HX  92
MANASSAS*      MOSUNNY   89  69  51 N5        29.98S HX  93
GAITHERSBURG*  PTSUNNY   83  72  69 CALM      30.01S

$$

MDZ006>007-011-014-162300-
BALTIMORE METRO

CITY           SKY/WX    TMP DP  RH WIND       PRES   REMARKS
BWI AIRPORT    MOSUNNY   86  69  56 NE9G17    29.97S HX  90
MD SCIENCE CTR   N/A     87  68  52 MISG      29.95F HX  90
MARTIN STATE   PTSUNNY   86  73  66 CALM      29.99R HX  93
ANNAPOLIS      MOSUNNY   86  76  71 SE7       29.97S HX  96
FORT MEADE*    SUNNY     82  70  65 NW6       30.00R

$$

MDZ012-015-019>023-162300-
MARYLAND EASTERN SHORE

CITY           SKY/WX    TMP DP  RH WIND       PRES   REMARKS
OCEAN CITY     CLOUDY    78  73  84 VRB7      29.99S
SALISBURY      CLOUDY    86  72  62 N3        29.97R HX  92
BAY BRIDGE AP* PTSUNNY   86  73  66 SE6       29.97S HX  93
CAMBRIDGE*     MOSUNNY   86  70  58 VRB3      29.97S HX  90
EASTON*        MOSUNNY   88  68  51 CALM      30.01S HX  91

$$

MDZ017>025-162300-
SOUTHERN MARYLAND

CITY           SKY/WX    TMP DP  RH WIND       PRES   REMARKS
PATUXENT RIVER PTSUNNY   83  77  82 SE5       29.97S HX  92
ST INIGOES     PTSUNNY   84  73  69 S3        29.97S HX  90
LEONARDTOWN*   MOSUNNY   82  73  74 CALM      29.99S

$$

MDZ003>005-162300-
NORTH CENTRAL MARYLAND

CITY           SKY/WX    TMP DP  RH WIND       PRES   REMARKS
FREDERICK*     MOSUNNY   90  61  37 NW5       30.02S
HAGERSTOWN APT SUNNY     87  65  47 N8        30.00S
WESTMINSTER*   SUNNY     90  63  40 N3        30.02R HX  90

$$

MDZ501>502-162300-
WESTERN MARYLAND

CITY           SKY/WX    TMP DP  RH WIND       PRES   REMARKS
OAKLAND*       SUNNY     72  63  73 NW3       30.12S
CUMBERLAND*    SUNNY     88  59  37 NW7       30.05R

$$

VAZ025>031-162300-
SHENANDOAH VALLEY

CITY           SKY/WX    TMP DP  RH WIND       PRES   REMARKS
WINCHESTER*    CLOUDY    84  68  58 NE6       30.01R
FRONT ROYAL*   CLOUDY    86  68  54 CALM      30.00S
LURAY*         PTSUNNY   84  68  58 N5        30.01S
NEW MARKET*    MOSUNNY  N/A N/A N/A CALM      29.99S
STAUNTON*      MOSUNNY   84  64  51 CALM      30.05S
WAYNESBORO*    CLOUDY    83  67  58 CALM      30.04F

$$

WVZ021-048>050-054>055-162300-
EASTERN WEST VIRGINIA PANHANDLE

CITY           SKY/WX    TMP DP  RH WIND       PRES   REMARKS
MARTINSBURG    PTSUNNY   86  64  48 VRB3      29.99S
PETERSBURG*    PTSUNNY   86  73  65 CALM      30.02S HX  92

$$

VAZ036>039-050-162300-
CENTRAL FOOTHILLS

CITY           SKY/WX    TMP DP  RH WIND       PRES   REMARKS
CHARLOTTESVILL MOSUNNY   90  67  46 E5        29.99S HX  93
CULPEPER*      MOSUNNY   88  71  56 CALM      29.99S HX  93
ORANGE*        MOSUNNY   86  68  54 CALM      29.98F
GORDONSVILLE*  SUNNY     87  72  60 SE3       29.99S HX  93
WARRENTON*     NOT AVBL

$$

VAZ055>057-162300-
NORTH AND CENTRAL PIEDMONT

CITY           SKY/WX    TMP DP  RH WIND       PRES   REMARKS
FREDERICKSBRG* MOSUNNY   88  70  53 S3        29.97S HX  93
STAFFORD*      MOSUNNY   85  74  68 CALM      30.02S HX  92

$$

NCZ024-NYZ072-PAZ021-071-VAZ022-071-162300-
OTHER REGIONAL OBSERVATIONS

CITY           SKY/WX    TMP DP  RH WIND       PRES   REMARKS
NEW YORK CITY  MOSUNNY   84  60  44 CALM      29.98S
PHILADELPHIA   MOSUNNY   87  62  43 NW10      29.96S
PITTSBURGH     MOSUNNY   84  59  42 N6        30.04F
ROANOKE        MOSUNNY   89  65  44 S9        30.03F HX  91
RICHMOND       PTSUNNY   86  70  58 S6        29.98S HX  90
RALEIGH        PTSUNNY   89  69  51 E5        30.00S HX  93

$$

ANZ530>537-162300-
MARINE OBSERVATIONS

STATION/POSITION TIME  TEMP    WIND        PRES
                       AIR SEA DIR/SP/G
                 (UTC) (F)     (DEG/KT/KT) (MB)
THOMAS PT LIGHT  2200   83 80  180/  5/  6   N/A
BALT KEY BRIDGE  2148   82      90/  7/  8 1015.0R
COVE POINT       2148   81     180/  7/  8 1015.7S
LEWISETTA        2148   84 83  170/  5/  6 1015.1R
SOLOMONS ISLAND  2148   83 83  130/  6/  7   N/A
PINEY POINT      2148          210/  2/  2   N/A

$$





USA.gov is the U.S. government's official web portal to all federal, state and local government web resources and services.